Location: Plainartige
(45.6866°N, 1.7993°E)
Time: 03:40:01
(UTC+00:00)

X-37B - Visible Passes

Search period start: 27 January 2022 00:00
Search period end: 06 February 2022 00:00
Orbit: 334 x 337 km, 45.0° (Epoch: 11 January)

Date Brightness Start Highest point End Pass type
(mag) Time Alt. Az. Time Alt. Az. Time Alt. Az.
27 Jan 2.9 17:37:40 10° SSE 17:38:02 10° SE 17:38:23 10° SE visible
27 Jan 3.2 19:10:17 10° SW 19:11:01 16° SW 19:11:01 16° SW visible
28 Jan 2.1 17:55:54 10° SSW 17:58:10 21° SSE 17:59:29 16° ESE visible
28 Jan 3.9 19:30:32 10° WSW 19:30:42 11° WSW 19:30:42 11° WSW visible
29 Jan 1.0 18:15:43 10° SW 18:18:25 40° SSE 18:19:08 33° ESE visible
30 Jan 0.4 18:35:57 10° WSW 18:38:45 66° S 18:38:45 66° S visible
31 Jan 1.6 18:56:22 10° W 18:58:21 41° W 18:58:21 41° W visible
01 Feb 0.5 17:41:23 10° WSW 17:44:12 65° S 17:46:43 12° E visible
01 Feb 3.0 19:16:48 10° W 19:17:57 21° W 19:17:57 21° W visible
02 Feb 0.3 18:01:48 10° W 18:04:38 80° S 18:06:20 21° E visible
02 Feb 3.9 19:37:16 10° W 19:37:34 12° W 19:37:34 12° W visible
03 Feb 0.3 18:22:14 10° W 18:25:04 72° S 18:25:59 38° ESE visible
04 Feb 0.9 18:42:42 10° W 18:45:27 47° SSW 18:45:41 46° S visible
05 Feb 2.3 19:03:18 10° W 19:05:28 25° SW 19:05:28 25° SW visible
